Home   Weather   Rankweil   Past weeks

Flag for Austria Past Weather in Rankweil, Vorarlberg, Austria — Yesterday and Last 2 Weeks

Now
31 °F

Chilly.


Feels Like: 31 °F
Forecast: 27 / 46 °F
Wind: 1 mph from South

Location: Feldkirch

Current Time: Dec 3, 2016 at 10:44:09 am

Latest Report: Dec 3, 2016 at 10:00 am


Visibility: N/A

Pressure: 30.20 "Hg

Humidity: 78%

Dew Point: 26 °F

Location of RankweilLocation

Past Weather in Rankweil — Graph

°F

Rankweil Temperature Yesterday

Maximum temperature yesterday: 41 °F (at 2:00 pm)
Minimum temperature yesterday: 24 °F (at 7:00 am)
Average temperature yesterday: 31 °F

High & Low Weather Summary for the Past Weeks

 TemperatureHumidityPressure
High67 °F (Nov 21, 3:00 pm)100% (Dec 2, 10:00 am)30.65 "Hg (Dec 2, 10:00 am)
Low22 °F (Nov 30, 8:00 am)31% (Nov 24, 12:00 pm)29.59 "Hg (Nov 21, 2:00 pm)
Average45 °F70%30.07 "Hg
* Reported Nov 18 9:00 am — Dec 3 9:00 am, Rankweil, Weather by CustomWeather, © 2016

Note: Actual official high and low records may vary slightly from our data, if they occured in-between our weather recording intervals... More about our weather records

Advertising

Rankweil Weather History for the Previous 24 Hours

Scroll right to see more
 ConditionsComfort  
Time TempWeatherWind HumidityBarometerVisibility
9:00 am
Sat, Dec 3
27 °FChilly.1 mph90%30.19 "HgN/A
8:00 am24 °FCold.No wind91%30.20 "HgN/A
7:00 am23 °FPassing clouds.1 mph93%30.20 "Hg6 mi
6:00 am24 °FCold.1 mph92%30.19 "HgN/A
5:00 am23 °FCold.No wind91%30.20 "HgN/A
4:00 am25 °FCold.1 mph92%30.19 "HgN/A
3:00 am24 °FCold.No wind91%30.20 "HgN/A
2:00 am25 °FChilly.1 mph91%30.20 "HgN/A
1:00 am26 °FChilly.No wind89%30.22 "HgN/A
12:00 am27 °FChilly.1 mph90%30.21 "HgN/A
11:00 pm
Fri, Dec 2
28 °FChilly.No wind89%30.22 "HgN/A
10:00 pm28 °FChilly.1 mph90%30.22 "HgN/A
9:00 pm29 °FChilly.No wind87%30.23 "HgN/A
8:00 pm30 °FChilly.1 mph89%30.24 "HgN/A
7:00 pm30 °FChilly.1 mph88%30.23 "HgN/A
6:00 pm32 °FChilly.1 mph84%30.22 "HgN/A
5:00 pm34 °FChilly.No wind79%30.21 "HgN/A
4:00 pm38 °FChilly.1 mph72%30.19 "HgN/A
3:00 pm40 °FChilly.1 mph70%30.19 "HgN/A
2:00 pm41 °FQuite cool.1 mph63%30.19 "HgN/A
1:00 pm39 °FChilly.1 mph72%30.22 "HgN/A
12:00 pm37 °FChilly.No wind75%30.25 "HgN/A
11:00 am34 °FChilly.1 mph83%30.29 "HgN/A
10:00 am29 °FFog.1 mph100%30.32 "Hg0 mi
Weather by CustomWeather, © 2016

See weather overviewHow to use our weather pages